Content
SEND FEEDBACK

Daily
Averages
Monthly
Summary
Canada

YELLOWKNIFE, NORTHWEST TERRITORIES


Home > North America > Canada > Northwest Territories
Elevation: 676 feet     Latitude: 62 28N     Longitude: 114 27W

WEATHER
 
SELECT A DAY
Number of Records: 195,187;   Date Range: 1/1/95 - 11/26/14
 
SHARE

PRINT THIS DATA

[ ← Previous Day ]
WEATHER ALMANAC - AUGUST 21, 2013
[ Next Day → ]
[ °C ]   °F
Weather ElementAverageHighLow
Temperature60.7 °F66.2 °F (4:00 pm)53.6 °F (4:00 am)
Dewpoint54.1 °F57.2 °F (12:00 pm)48.2 °F (1:00 am)
Humidity79.1 %94 % (4:00 am)57 % (6:00 pm)
Barometer29.74 in29.82 in (6:00 am)29.58 in (11:00 pm)
Wind Speed11.6 mph19.6 mph (12:36 pm)
Wind Gust26.5 mph (3:00 pm)
Weather ElementAverage
Visibility15 mi
Wind DirectionSSW (185.7 °)

Weather ElementTotal
Precipitation---
Heating Degree Days5.1 (Base 65)
Growing Degree Days9.9 (Base 50)
Averaged from 28 records on August 21, 2013
WEATHER CONDITIONS BREAKOUT
WIND DIRECTION BREAKOUT
WEATHER BY HOUR - AUGUST 21, 2013
[ °C ]   °F
Local TimeTemperatureDewpointHumidityBarometerVisibilityWind DirectionWind SpeedGust SpeedPrecipitationEventsConditions
1:00 AM57.2 °F48.2 °F72 %29.80 in15.0 miSSW (200°)3.5 mphOvercast
2:00 AM57.2 °F50.0 °F77 %29.81 in15.0 miSSW (210°)2.3 mphOvercast
3:00 AM55.4 °F50.0 °F82 %29.81 in15.0 miSouth (180°)3.5 mphMostly Cloudy
4:00 AM53.6 °F51.8 °F94 %29.81 in15.0 miSSE (150°)5.8 mphScattered Clouds
5:00 AM53.6 °F51.8 °F94 %29.81 in15.0 miSSE (150°)5.8 mphMostly Cloudy
6:00 AM55.0 °F53.0 °F90 %29.82 in15.0 miSSE (160°)9.2 mphMostly Cloudy
6:00 AM55.4 °F53.6 °F94 %29.81 in15.0 miSouth (170°)10.4 mphMostly Cloudy
7:00 AM55.4 °F53.6 °F94 %29.81 in15.0 miSouth (170°)5.8 mphMostly Cloudy
8:00 AM57.2 °F55.4 °F94 %29.81 in15.0 miSouth (180°)5.8 mphScattered Clouds
9:00 AM59.0 °F55.4 °F88 %29.81 in15.0 miSouth (180°)13.8 mphMostly Cloudy
10:00 AM59.0 °F55.4 °F88 %29.80 in15.0 miSouth (180°)15.0 mphOvercast
11:00 AM60.8 °F55.4 °F82 %29.79 in15.0 miSouth (180°)18.4 mph24.2 mphMostly Cloudy
11:20 AM59.0 °F55.4 °F88 %29.78 in15.0 miSSE (160°)17.3 mph25.3 mphMostly Cloudy
12:00 PM60.8 °F57.2 °F88 %29.77 in15.0 miSSE (160°)17.3 mph23.0 mphOvercast
12:00 PM61.0 °F57.0 °F83 %29.77 in15.0 miSSE (160°)18.4 mphOvercast
12:36 PM64.4 °F55.4 °F73 %29.76 in15.0 miSouth (180°)19.6 mphMostly Cloudy
1:00 PM64.4 °F57.2 °F77 %29.75 in15.0 miSouth (180°)16.1 mph21.9 mphMostly Cloudy
2:00 PM64.4 °F55.4 °F73 %29.73 in15.0 miSouth (190°)17.3 mph23.0 mphMostly Cloudy
3:00 PM64.4 °F55.4 °F73 %29.73 in15.0 miSouth (190°)17.3 mph26.5 mphMostly Cloudy
4:00 PM66.2 °F55.4 °F68 %29.70 in15.0 miSouth (190°)16.1 mph25.3 mphMostly Cloudy
5:00 PM66.2 °F55.4 °F68 %29.67 in15.0 miSouth (190°)13.8 mph20.7 mphScattered Clouds
6:00 PM66.2 °F53.6 °F64 %29.65 in15.0 miSSW (200°)13.8 mph25.3 mphScattered Clouds
6:00 PM66.0 °F54.0 °F57 %29.65 in15.0 miSSW (200°)16.1 mphScattered Clouds
7:00 PM64.4 °F53.6 °F68 %29.62 in15.0 miSSW (200°)11.5 mph18.4 mphMostly Cloudy
8:00 PM64.4 °F55.4 °F73 %29.60 in15.0 miSSW (210°)11.5 mphMostly Cloudy
9:00 PM64.4 °F55.4 °F73 %29.60 in15.0 miSW (230°)4.6 mphMostly Cloudy
10:00 PM62.6 °F53.6 °F72 %29.59 in15.0 miSSW (210°)6.9 mphMostly Cloudy
11:00 PM62.6 °F51.8 °F68 %29.58 in15.0 miWSW (240°)8.1 mphMostly Cloudy
Hourly data recorded from CYZF, located miles away from Yellowknife, Northwest Territories







STORIES FROM OUR PARTNERS